PALAPA D

Last updated on Sept. 30, 2020, 5:50 a.m. UTC

1 35812U 09046A   20273.66154606 -.00000376  00000-0  00000-0 0  9993
2 35812   0.4131  94.5867 0003204 132.8219 132.5754  1.00270306 40745
UTC
Height (km)
Latitude
Longitude
Inclination
Orbital Period
UTC large
Height (km)
Speed (km/s)
/
Latitude / Longitude
Inclination (degrees)
Orbital Period (minutes)
Azimuth
Elevation
Range (km)
Doppler Factor
iOS Compass Heading
iOS Angle

Next 30 passes for location: Hong Kong

Rise time Rise Azimuth (degrees) Set time Set Azimuth (degrees) Duration Max altitude (degrees)

No matching passes for this satellites